Regional Weather Roundup
Issued by NWS Columbia, SC

Current Version | Previous Version | Text Only | Print | Product List | Glossary On
Versions: 1 2 3 4 5 6 7 8 9 10 11 12 13 14 15 16 17 18 19 20 21 22 23 24 25 26 27 28 29 30 31 32 33 34 35 36 37 38 39 40 41 42 43 44 45 46 47 48 49 50
000
ASUS42 KCAE 011910
RWRCAE
REGIONAL WEATHER ROUNDUP
NATIONAL WEATHER SERVICE COLUMBIA SC
200 PM EST SUN FEB 01 2015

NOTE: "FAIR" INDICATES FEW OR NO CLOUDS BELOW 12,000 FEET WITH NO
SIGNIFICANT WEATHER AND/OR OBSTRUCTIONS TO VISIBILITY.

NOT ALL STATIONS ARE QUALITY CONTROLLED BY THE NATIONAL
WEATHER SERVICE. USE DATA WITH CAUTION...ESPECIALLY
DEWPOINT OBSERVATIONS.

SCZ001>056-GAZ040-063>065-077-012000-
...UPSTATE SOUTH CAROLINA...

CITY           SKY/WX    TMP DP  RH WIND       PRES   REMARKS
ANDERSON       CLOUDY    56  37  49 S7        30.08F
LIBERTY        CLOUDY    51  39  62 MISG      30.08F
SPARTANBURG    CLOUDY    55  36  47 S5        30.10F
CLEMSON        CLOUDY    51  33  50 E3        30.09F
GREENVILLE     CLOUDY    54  36  50 S8        30.09F
GREENWOOD      CLOUDY    61  43  51 SW15G21   30.11F
GREER          CLOUDY    54  37  52 SW10      30.08F
ROCK HILL      CLOUDY    55  36  48 SW7       30.12F
CHESTER        CLOUDY    57  34  41 SW3       30.13F
LAURENS        CLOUDY    55  45  67 CALM      30.10F


...CENTRAL SOUTH CAROLINA...

CITY           SKY/WX    TMP DP  RH WIND       PRES   REMARKS
COLUMBIA APT   PTSUNNY   65  42  43 S14       30.11F
COLUMBIA OWENS MOSUNNY   65  41  41 S14G22    30.11F
DARLINGTON     PTSUNNY   63  36  36 S15       30.14F
FLORENCE       PTSUNNY   63  34  33 S18       30.13F
MCENTIRE ANGB  PTSUNNY   66  41  40 S15G22    30.11F
ORANGEBURG     MOSUNNY   67  42  40 S20G28    30.11F
SUMTER SHAW    MOSUNNY   64  42  44 S16G23    30.10F
NEWBERRY       CLOUDY    59  43  55 SW10      30.13F
AIKEN          MOCLDY    63  45  51 S9        30.14F
BARNWELL       FAIR      66  45  45 S14G21    30.10F
MANNING        FAIR      66  41  39 S10G16    30.13F
CAMDEN         FAIR      63  39  42 SW13      30.12F
LANCASTER      CLOUDY    57  37  47 SW10      30.13S
WINNSBORO      MOCLDY    61  43  51 SW14G20   30.10F


...EASTERN AND COASTAL SOUTH CAROLINA...

CITY           SKY/WX    TMP DP  RH WIND       PRES   REMARKS
MYRTLE BEACH   MOSUNNY   61  39  44 S13G18      N/A
N MYRTLE BCH   MOSUNNY   59  42  53 S12       30.18F
CONWAY         FAIR      61  37  41 S10G17    30.17F
MARION         FAIR      63  36  36 S14       30.15F
HARTSVILLE     FAIR      64  43  45 S10G16    30.12F
FLORENCE       PTSUNNY   63  34  33 S18       30.13F
DARLINGTON     PTSUNNY   63  36  36 S15       30.14F
CHARLESTON APT PTSUNNY   65  44  46 S21       30.17F
MOUNT PLEASANT FAIR      64  46  52 SE7       30.18F
WALTERBORO     MOCLDY    70  41  35 S18G24    30.14F
BEAUFORT       SUNNY     67  50  54 S12G23    30.15F


...EASTERN GEORGIA...

CITY           SKY/WX    TMP DP  RH WIND       PRES   REMARKS
AUGUSTA BUSH F PTSUNNY   65  44  46 S8        30.10F
AUGUSTA DANIEL PTSUNNY   65  44  46 SW13      30.11F
THOMSON        CLOUDY    65  49  56 S7        30.14F
WASHINGTON       N/A     63  50  63 S5        30.09F
CLAXTON        FAIR      70  50  49 S8G16     30.11F
SYLVANIA       PTCLDY    69  48  47 S8G18     30.11F
STATESBORO     PTSUNNY   69  48  46 S13G20    30.10F
SAVANNAH       MOSUNNY   70  46  42 S21G26    30.13F


...SOUTHERN NORTH CAROLINA...

CITY           SKY/WX    TMP DP  RH WIND       PRES   REMARKS
CHARLOTTE      CLOUDY    54  33  45 S10       30.12F
MONROE         PTSUNNY   55  34  45 VRB5      30.11F
WADESBORO      MOCLDY    55  28  34 S7        30.14F
ROCKINGHAM       N/A     56  30  37 S6        30.14F
RUTHERFORDTON  CLOUDY    49  34  55 S7        30.09F
ASHEVILLE      LGT RAIN  47  39  74 S15       30.04F

$$


USA.gov is the U.S. government's official web portal to all federal, state and local government web resources and services.